Lavon Lake Weather Center

Moon Phase Calendar



Lavon Lake Water Level
Online Cameras

 


      

Current Conditions in Culleoka
5/18/2022 10:45:38 AM

79°F
Feels Like 79
Clear
Humidity
71%
Pressure
29.88"
Wind
15 mph (S)
Dew Point
69°F
UV Index
6/10 (High)
Visibility
6 mi

Hourly Forecast

Date & Time Wed, May 18
10:00 AM
Wed, May 18
11:00 AM
Wed, May 18
12:00 PM
Wed, May 18
1:00 PM
Wed, May 18
2:00 PM
Wed, May 18
3:00 PM
Wed, May 18
4:00 PM
Wed, May 18
5:00 PM
Wed, May 18
6:00 PM
Wed, May 18
7:00 PM
Wed, May 18
8:00 PM
Wed, May 18
9:00 PM
Wed, May 18
10:00 PM
Wed, May 18
11:00 PM
Thu, May 19
12:00 AM
Thu, May 19
1:00 AM
Thu, May 19
2:00 AM
Thu, May 19
3:00 AM
Thu, May 19
4:00 AM
Thu, May 19
5:00 AM
Thu, May 19
6:00 AM
Thu, May 19
7:00 AM
Thu, May 19
8:00 AM
Thu, May 19
9:00 AM
Thu, May 19
10:00 AM
Thu, May 19
11:00 AM
Thu, May 19
12:00 PM
Thu, May 19
1:00 PM
Thu, May 19
2:00 PM
Thu, May 19
3:00 PM
Thu, May 19
4:00 PM
Thu, May 19
5:00 PM
Thu, May 19
6:00 PM
Thu, May 19
7:00 PM
Thu, May 19
8:00 PM
Thu, May 19
9:00 PM
Thu, May 19
10:00 PM
Thu, May 19
11:00 PM
Fri, May 20
12:00 AM
Fri, May 20
1:00 AM
Fri, May 20
2:00 AM
Fri, May 20
3:00 AM
Fri, May 20
4:00 AM
Fri, May 20
5:00 AM
Fri, May 20
6:00 AM
Fri, May 20
7:00 AM
Fri, May 20
8:00 AM
Fri, May 20
9:00 AM
Condition
Clouds

Clear

Clouds

Clouds

Clouds

Clouds

Clouds

Clouds

Clouds

Clouds

Clear

Clear

Clear

Clear

Clear

Clear

Clear

Clear

Clear

Clear

Clear

Clear

Clear

Clear

Clear

Clear

Clear

Clear

Clear

Clear

Clear

Clear

Clear

Clear

Clear

Clear

Clear

Clear

Clear

Clear

Clear

Clear

Clear

Clear

Clear

Clear

Clouds

Clouds
Temperature 79°F79°F81°F82°F84°F90°F93°F92°F91°F87°F81°F81°F81°F83°F82°F79°F76°F75°F74°F73°F72°F71°F72°F76°F79°F83°F87°F90°F92°F94°F95°F94°F93°F89°F84°F85°F85°F84°F81°F79°F77°F75°F73°F72°F71°F71°F72°F75°F
Feels Like 79°F79°F83°F85°F86°F90°F93°F92°F91°F88°F82°F82°F81°F82°F81°F78°F76°F75°F74°F73°F72°F71°F73°F76°F79°F84°F87°F90°F92°F93°F95°F95°F93°F89°F85°F84°F84°F83°F81°F79°F77°F75°F73°F73°F72°F72°F73°F76°F
Cloudiness 17%0%17%33%60%46%52%47%38%31%0%0%0%0%4%8%7%4%3%2%2%2%1%9%9%8%7%7%1%0%0%0%0%0%0%0%0%0%0%0%0%0%0%0%0%0%18%26%
Visibility 6 mi6 mi6 mi6 mi6 mi6 mi6 mi6 mi6 mi6 mi6 mi6 mi6 mi6 mi6 mi6 mi6 mi6 mi6 mi6 mi6 mi6 mi6 mi6 mi6 mi6 mi6 mi6 mi6 mi6 mi6 mi6 mi6 mi6 mi6 mi6 mi6 mi6 mi6 mi6 mi6 mi6 mi6 mi6 mi6 mi6 mi6 mi6 mi
Precipitation 0%0%0%0%0%0%0%0%0%0%0%0%0%0%0%0%15%15%11%7%6%6%0%0%0%0%0%0%0%0%0%0%0%0%0%0%0%0%0%0%0%0%0%0%0%0%0%0%
Humidity 69%71%66%60%55%40%33%35%36%45%55%47%45%34%37%44%52%57%61%65%70%76%78%71%59%50%43%38%34%32%33%34%36%41%48%37%34%37%42%48%56%64%71%79%83%86%85%77%
Dew Point 68°F69°F68°F67°F66°F62°F60°F60°F60°F63°F63°F59°F57°F52°F53°F55°F57°F59°F59°F60°F61°F63°F65°F65°F64°F63°F61°F60°F60°F60°F61°F61°F62°F62°F62°F56°F54°F55°F56°F58°F60°F61°F63°F65°F66°F66°F68°F67°F
Pressure 29.88"29.88"29.88"29.88"29.85"29.83"29.77"29.74"29.74"29.71"29.71"29.71"29.71"29.74"29.74"29.74"29.77"29.74"29.74"29.74"29.74"29.77"29.77"29.77"29.74"29.74"29.74"29.71"29.68"29.65"29.62"29.59"29.56"29.56"29.56"29.56"29.56"29.59"29.59"29.59"29.59"29.59"29.62"29.62"29.65"29.65"29.68"29.68"
Wind Speed 21.4 mph22 mph21.2 mph20.1 mph16 mph19.2 mph18.5 mph17.7 mph15.8 mph12.2 mph12.6 mph14.2 mph17 mph19.4 mph19.6 mph19.2 mph19.8 mph20.8 mph19.7 mph19.7 mph19 mph17.2 mph17.6 mph20.3 mph22.6 mph22.2 mph21.6 mph21.7 mph21.6 mph21.5 mph20.9 mph20.8 mph19.5 mph17.6 mph18.4 mph23.4 mph24.8 mph24.4 mph24.2 mph24 mph26.4 mph23.2 mph21.7 mph19.8 mph19.6 mph18.8 mph20.6 mph22.8 mph
Wind
Direction
194°
SSW
195°
SSW
194°
SSW
197°
SSW
197°
SSW
194°
SSW
196°
SSW
193°
SSW
187°
S
172°
S
151°
SSE
157°
SSE
163°
SSE
178°
S
181°
S
182°
S
185°
S
186°
S
195°
SSW
190°
S
191°
S
190°
S
190°
S
192°
SSW
193°
SSW
195°
SSW
195°
SSW
192°
SSW
188°
S
184°
S
178°
S
174°
S
171°
S
166°
SSE
156°
SSE
166°
SSE
172°
S
176°
S
180°
S
181°
S
183°
S
186°
S
189°
S
190°
S
189°
S
188°
S
182°
S
186°
S

Daily Forecast

Date High Low Precip. Humidity
Today
May 18

Clouds
93 °F
70 °F
0%
60%
Thursday
May 19

Clear
95 °F
71 °F
15%
38%
Friday
May 20

Rain
94 °F
71 °F
53%
48%
Saturday
May 21

Rain
93 °F
68 °F
94%
50%
Sunday
May 22

Rain
68 °F
53 °F
94%
72%
Monday
May 23

Rain
66 °F
62 °F
100%
90%
Tuesday
May 24

Rain
73 °F
62 °F
100%
94%
Wednesday
May 25

Rain
79 °F
61 °F
37%
68%
Thursday
May 26

Clear
87 °F
64 °F
11%
51%
Friday
May 27

Clear
87 °F
62 °F
0%
45%
Saturday
May 28

Clear
91 °F
69 °F
0%
53%
Sunday
May 29

Clouds
93 °F
73 °F
0%
54%
Monday
May 30

Clouds
94 °F
75 °F
0%
68%
Tuesday
May 31

Clouds
89 °F
72 °F
0%
56%
Wednesday
Jun 1

Clouds
92 °F
72 °F
0%
47%
Thursday
Jun 2

Rain
88 °F
73 °F
43%
49%

Temperature 8-14 Day Outlook



Precipitation 8-14 Day Outlook




Quick Links
Lavon Lake News
Lavon Lake Photos
Lavon Lake Videos




About Us
Contact Us
Site Map
Search Site
Advertise With Us
   
Lavon.USLakes.info
THE LAVON LAKE WEBSITE

Copyright 2022, Lakes Online
Privacy    |    Legal